Time,TemperatureF,DewpointF,PressureIn,WindDirection,WindDirectionDegrees,WindSpeedMPH,WindSpeedGustMPH,Humidity,HourlyPrecipIn,Conditions,Clouds,dailyrainin,SoftwareType,DateUTC
2013-07-17 00:01:00,72.0,65.0,30.30,SSE,158,0.0,0.0,80,0.00,,,0.00,,2013-07-17 04:01:00,
2013-07-17 00:22:00,72.0,66.0,30.30,SSE,158,0.0,0.0,81,0.00,,,0.00,,2013-07-17 04:22:00,
2013-07-17 00:32:00,72.0,66.0,30.30,SSE,158,0.0,0.0,81,0.00,,,0.00,,2013-07-17 04:32:00,
2013-07-17 00:43:00,72.0,66.0,30.30,SSE,158,0.0,0.0,81,0.00,,,0.00,,2013-07-17 04:43:00,
2013-07-17 00:53:00,72.0,66.0,30.29,SSE,158,0.0,0.0,81,0.00,,,0.00,,2013-07-17 04:53:00,
2013-07-17 01:02:00,71.0,65.0,30.29,SSE,158,0.0,0.0,82,0.00,,,0.00,,2013-07-17 05:02:00,
2013-07-17 01:11:00,71.0,65.0,30.29,SSE,158,0.0,0.0,82,0.00,,,0.00,,2013-07-17 05:11:00,
2013-07-17 01:32:00,71.0,66.0,30.29,SSE,158,0.0,0.0,83,0.00,,,0.00,,2013-07-17 05:32:00,
2013-07-17 01:43:00,71.0,66.0,30.29,SSE,158,0.0,0.0,83,0.00,,,0.00,,2013-07-17 05:43:00,
2013-07-17 01:52:00,71.0,66.0,30.28,SSE,158,0.0,0.0,83,0.00,,,0.00,,2013-07-17 05:52:00,
2013-07-17 02:01:00,70.0,65.0,30.28,SSE,158,0.0,0.0,83,0.00,,,0.00,,2013-07-17 06:01:00,
2013-07-17 02:33:00,70.0,65.0,30.27,SSE,158,0.0,0.0,83,0.00,,,0.00,,2013-07-17 06:33:00,
2013-07-17 02:43:00,70.0,65.0,30.27,SSE,158,0.0,0.0,83,0.00,,,0.00,,2013-07-17 06:43:00,
2013-07-17 03:01:00,69.0,64.0,30.27,SSE,158,0.0,0.0,84,0.00,,,0.00,,2013-07-17 07:01:00,
2013-07-17 03:11:00,69.0,64.0,30.27,SSE,158,0.0,0.0,84,0.00,,,0.00,,2013-07-17 07:11:00,
2013-07-17 03:22:00,69.0,64.0,30.27,SSE,158,0.0,0.0,84,0.00,,,0.00,,2013-07-17 07:22:00,
2013-07-17 03:42:00,69.0,64.0,30.26,SSE,158,0.0,0.0,84,0.00,,,0.00,,2013-07-17 07:42:00,
2013-07-17 03:52:00,69.0,64.0,30.27,SSE,158,0.0,0.0,84,0.00,,,0.00,,2013-07-17 07:52:00,
2013-07-17 04:02:00,69.0,64.0,30.27,SSE,158,0.0,0.0,84,0.00,,,0.00,,2013-07-17 08:02:00,
2013-07-17 04:11:00,69.0,64.0,30.27,SSE,158,0.0,0.0,85,0.00,,,0.00,,2013-07-17 08:11:00,
2013-07-17 04:32:00,69.0,64.0,30.27,SSE,158,0.0,0.0,85,0.00,,,0.00,,2013-07-17 08:32:00,
2013-07-17 04:43:00,69.0,65.0,30.28,SSE,158,0.0,0.0,86,0.00,,,0.00,,2013-07-17 08:43:00,
2013-07-17 05:02:00,69.0,65.0,30.28,SSE,158,0.0,0.0,86,0.00,,,0.00,,2013-07-17 09:02:00,
2013-07-17 05:12:00,69.0,65.0,30.28,SSE,158,0.0,0.0,86,0.00,,,0.00,,2013-07-17 09:12:00,
2013-07-17 05:22:00,69.0,65.0,30.28,SSE,158,0.0,0.0,86,0.00,,,0.00,,2013-07-17 09:22:00,
2013-07-17 05:32:00,69.0,65.0,30.28,SSE,158,0.0,0.0,86,0.00,,,0.00,,2013-07-17 09:32:00,
2013-07-17 05:43:00,69.0,65.0,30.28,SSE,158,0.0,0.0,86,0.00,,,0.00,,2013-07-17 09:43:00,
2013-07-17 06:01:00,70.0,66.0,30.29,SSE,158,0.0,0.0,86,0.00,,,0.00,,2013-07-17 10:01:00,
2013-07-17 06:11:00,70.0,66.0,30.29,SSE,158,0.0,0.0,86,0.00,,,0.00,,2013-07-17 10:11:00,
2013-07-17 06:22:00,70.0,66.0,30.29,SSE,158,0.0,0.0,86,0.00,,,0.00,,2013-07-17 10:22:00,
2013-07-17 06:32:00,70.0,66.0,30.29,SSE,158,0.0,0.0,86,0.00,,,0.00,,2013-07-17 10:32:00,
2013-07-17 06:43:00,70.0,66.0,30.30,SSE,158,0.0,0.0,86,0.00,,,0.00,,2013-07-17 10:43:00,
2013-07-17 06:52:00,70.0,66.0,30.30,SSE,158,0.0,0.0,86,0.00,,,0.00,,2013-07-17 10:52:00,
2013-07-17 07:02:00,70.0,66.0,30.30,SSE,158,0.0,0.0,86,0.00,,,0.00,,2013-07-17 11:02:00,
2013-07-17 07:22:00,70.0,66.0,30.30,SSE,158,0.0,0.0,86,0.00,,,0.00,,2013-07-17 11:22:00,
2013-07-17 07:42:00,70.0,66.0,30.30,SSE,158,0.0,0.0,86,0.00,,,0.00,,2013-07-17 11:42:00,
2013-07-17 07:52:00,70.0,66.0,30.30,SSE,158,0.0,0.0,86,0.00,,,0.00,,2013-07-17 11:52:00,
2013-07-17 08:01:00,70.0,66.0,30.30,SSE,158,0.0,0.0,86,0.00,,,0.00,,2013-07-17 12:01:00,
2013-07-17 08:32:00,71.0,67.0,30.31,SSE,158,0.0,0.0,87,0.00,,,0.00,,2013-07-17 12:32:00,
2013-07-17 08:42:00,71.0,67.0,30.31,SSE,158,0.0,0.0,87,0.00,,,0.00,,2013-07-17 12:42:00,
2013-07-17 08:53:00,71.0,67.0,30.31,SSE,158,0.0,0.0,87,0.00,,,0.00,,2013-07-17 12:53:00,
2013-07-17 09:02:00,71.0,67.0,30.31,SSE,158,0.0,0.0,86,0.00,,,0.00,,2013-07-17 13:02:00,
2013-07-17 09:43:00,72.0,68.0,30.32,SSE,158,0.0,0.0,87,0.00,,,0.00,,2013-07-17 13:43:00,
2013-07-17 09:53:00,72.0,68.0,30.32,SSE,158,0.0,0.0,87,0.00,,,0.00,,2013-07-17 13:53:00,
2013-07-17 10:32:00,74.0,70.0,30.31,SSE,158,0.0,0.0,86,0.00,,,0.00,,2013-07-17 14:32:00,
2013-07-17 10:43:00,74.0,70.0,30.31,SSE,158,0.0,0.0,86,0.00,,,0.00,,2013-07-17 14:43:00,
2013-07-17 10:52:00,74.0,70.0,30.31,SSE,158,0.0,0.0,86,0.00,,,0.00,,2013-07-17 14:52:00,
2013-07-17 11:32:00,77.0,72.0,30.30,SSE,158,0.0,0.0,84,0.00,,,0.00,,2013-07-17 15:32:00,
2013-07-17 11:52:00,80.0,74.0,30.30,SSE,158,0.0,0.0,82,0.00,,,0.00,,2013-07-17 15:52:00,
2013-07-17 12:02:00,81.0,73.0,30.29,SSE,158,0.0,0.0,78,0.00,,,0.00,,2013-07-17 16:02:00,
2013-07-17 12:11:00,81.0,73.0,30.29,SSE,158,0.0,0.0,78,0.00,,,0.00,,2013-07-17 16:11:00,
2013-07-17 12:22:00,81.0,73.0,30.29,SSE,158,0.0,0.0,78,0.00,,,0.00,,2013-07-17 16:22:00,
2013-07-17 12:33:00,83.0,74.0,30.29,SSE,158,0.0,0.0,75,0.00,,,0.00,,2013-07-17 16:33:00,
2013-07-17 12:42:00,83.0,74.0,30.29,SSE,158,0.0,0.0,75,0.00,,,0.00,,2013-07-17 16:42:00,
2013-07-17 12:52:00,83.0,74.0,30.29,SSE,158,0.0,0.0,75,0.00,,,0.00,,2013-07-17 16:52:00,
2013-07-17 13:22:00,85.0,73.0,30.28,SSE,158,0.0,0.0,68,0.00,,,0.00,,2013-07-17 17:22:00,
2013-07-17 13:32:00,86.0,75.0,30.28,South,180,0.0,0.0,69,0.00,,,0.00,,2013-07-17 17:32:00,
2013-07-17 13:52:00,87.0,75.0,30.27,SSE,158,0.0,0.0,67,0.00,,,0.00,,2013-07-17 17:52:00,
2013-07-17 14:01:00,87.0,75.0,30.27,South,187,0.0,0.0,67,0.00,,,0.00,,2013-07-17 18:01:00,
2013-07-17 14:22:00,87.0,74.0,30.26,South,180,0.0,0.0,66,0.00,,,0.00,,2013-07-17 18:22:00,
2013-07-17 14:32:00,87.0,74.0,30.26,South,180,0.0,0.0,66,0.00,,,0.00,,2013-07-17 18:32:00,
2013-07-17 14:52:00,88.0,75.0,30.24,SSW,194,0.0,0.0,66,0.00,,,0.00,,2013-07-17 18:52:00,
2013-07-17 15:22:00,89.0,75.0,30.23,West,259,0.0,0.0,63,0.00,,,0.00,,2013-07-17 19:22:00,
2013-07-17 15:32:00,89.0,75.0,30.23,West,271,0.0,0.0,63,0.00,,,0.00,,2013-07-17 19:32:00,
2013-07-17 15:43:00,89.0,75.0,30.23,West,271,0.0,0.0,63,0.00,,,0.00,,2013-07-17 19:43:00,
2013-07-17 16:22:00,88.0,73.0,30.22,ENE,68,0.0,0.0,62,0.00,,,0.00,,2013-07-17 20:22:00,
2013-07-17 16:33:00,88.0,72.0,30.22,ENE,68,0.0,0.0,60,0.00,,,0.00,,2013-07-17 20:33:00,
2013-07-17 16:43:00,88.0,72.0,30.22,ENE,68,0.0,0.0,60,0.00,,,0.00,,2013-07-17 20:43:00,
2013-07-17 17:32:00,87.0,71.0,30.21,ENE,68,0.0,0.0,60,0.00,,,0.00,,2013-07-17 21:32:00,
2013-07-17 18:01:00,87.0,72.0,30.19,ENE,68,0.0,0.0,61,0.00,,,0.00,,2013-07-17 22:01:00,
2013-07-17 18:22:00,87.0,72.0,30.17,ENE,68,0.0,0.0,61,0.00,,,0.00,,2013-07-17 22:22:00,
2013-07-17 18:32:00,86.0,71.0,30.17,ENE,68,0.0,0.0,62,0.00,,,0.00,,2013-07-17 22:32:00,
2013-07-17 18:53:00,85.0,71.0,30.18,ENE,68,0.0,0.0,63,0.00,,,0.00,,2013-07-17 22:53:00,
2013-07-17 19:02:00,84.0,71.0,30.19,SSW,202,0.0,0.0,65,0.00,,,0.00,,2013-07-17 23:02:00,
2013-07-17 19:32:00,83.0,71.0,30.19,SSW,202,0.0,0.0,67,0.00,,,0.00,,2013-07-17 23:32:00,
2013-07-17 19:43:00,83.0,71.0,30.19,SSW,202,0.0,0.0,67,0.00,,,0.00,,2013-07-17 23:43:00,
2013-07-17 20:01:00,81.0,70.0,30.19,SSW,202,0.0,0.0,69,0.00,,,0.00,,2013-07-18 00:01:00,
2013-07-17 20:33:00,80.0,70.0,30.19,SSW,202,0.0,0.0,71,0.00,,,0.00,,2013-07-18 00:33:00,
2013-07-17 20:43:00,80.0,70.0,30.19,SSW,202,0.0,0.0,71,0.00,,,0.00,,2013-07-18 00:43:00,
2013-07-17 21:01:00,79.0,69.0,30.19,SSW,202,0.0,0.0,72,0.00,,,0.00,,2013-07-18 01:01:00,
2013-07-17 21:32:00,79.0,70.0,30.20,SSW,202,0.0,0.0,73,0.00,,,0.00,,2013-07-18 01:32:00,
2013-07-17 21:43:00,78.0,69.0,30.20,SSW,202,0.0,0.0,74,0.00,,,0.00,,2013-07-18 01:43:00,
2013-07-17 21:53:00,78.0,69.0,30.20,SSW,213,0.0,0.0,74,0.00,,,0.00,,2013-07-18 01:53:00,
2013-07-17 22:22:00,77.0,69.0,30.21,SW,225,0.0,0.0,76,0.00,,,0.00,,2013-07-18 02:22:00,
2013-07-17 22:52:00,76.0,68.0,30.21,SW,225,0.0,0.0,76,0.00,,,0.00,,2013-07-18 02:52:00,
2013-07-17 23:01:00,76.0,68.0,30.22,SW,225,0.0,0.0,77,0.00,,,0.00,,2013-07-18 03:01:00,
2013-07-17 23:11:00,76.0,68.0,30.22,SW,225,0.0,0.0,77,0.00,,,0.00,,2013-07-18 03:11:00,
2013-07-17 23:22:00,76.0,68.0,30.22,SW,225,0.0,0.0,77,0.00,,,0.00,,2013-07-18 03:22:00,
2013-07-17 23:52:00,75.0,68.0,30.22,SW,225,0.0,0.0,78,0.00,,,0.00,,2013-07-18 03:52:00,